Location: Ferchesar
(52.6477°N, 12.4298°E)
Time: 11:03:54
(UTC+01:00)

A-11 Canister half - Pass Details

Date: 09 December 2021
Orbit: 1516 x 1684 km, 47.2° (Epoch: 22 January)

Event Time Altitude Azimuth Distance (km) Brightness Sun altitude
Rises 06:21:10 0° 229° (SW) 4,734 11.3 -15.3°
Reaches altitude 10° 06:24:19 10° 224° (SW) 3,773 10.8 -14.8°
Maximum altitude 06:33:22 49° 154° (SSE) 2,014 9.9 -13.5°
Drops below altitude 10° 06:42:45 10° 84° (E) 3,906 12.2 -12.2°
Sets 06:46:04 0° 80° (E) 4,912 12.7 -11.7°
